Location: Bothwell
(42.3833°S, 147.0000°E)
Time: 17:27:37
(UTC+11:00)

Envisat - Visible Passes

Search period start: 01 December 2022 00:00
Search period end: 11 December 2022 00:00
Orbit: 763 x 765 km, 98.2° (Epoch: 30 November)

Date Brightness Start Highest point End Pass type
(mag) Time Alt. Az. Time Alt. Az. Time Alt. Az.
01 Dec 4.9 03:41:30 10° NE 03:45:59 32° ESE 03:50:31 10° S visible
02 Dec 5.8 03:06:25 10° E 03:09:24 16° ESE 03:12:25 10° SSE visible
02 Dec 3.0 04:42:42 10° N 04:47:48 71° WNW 04:52:57 10° SSW visible
03 Dec 3.9 04:05:55 10° NNE 04:10:52 53° ESE 04:15:53 10° S visible
04 Dec 5.2 03:30:00 10° ENE 03:34:09 26° ESE 03:38:20 10° S visible
05 Dec 5.9 02:55:31 10° E 02:57:38 13° ESE 02:59:45 10° SSE visible
05 Dec 3.1 04:30:43 10° NNE 04:35:50 90° E 04:41:02 10° SSW visible
06 Dec 4.3 03:54:12 10° NE 03:58:58 42° ESE 04:03:49 10° S visible
07 Dec 5.6 03:18:37 10° ENE 03:22:19 21° ESE 03:26:03 10° SSE visible
08 Dec 3.4 04:18:49 10° NNE 04:23:54 71° ESE 04:29:03 10° S visible
09 Dec 4.8 03:42:34 10° NE 03:47:06 33° ESE 03:51:41 10° S visible
10 Dec 5.7 03:07:23 10° E 03:10:31 17° ESE 03:13:39 10° SSE visible
10 Dec 3.0 04:43:51 10° N 04:48:55 68° WNW 04:54:05 10° SSW visible
